Regional Weather Roundup
Issued by NWS

Home | Current Version | Previous Version | Graphics & Text | Print | Product List | Glossary On
Versions: 1 2 3 4 5 6 7 8 9 10 11 12 13 14 15 16 17 18 19 20 21 22 23 24 25 26 27 28 29 30 31 32 33 34 35 36 37 38 39 40 41 42 43 44 45 46 47 48 49 50
000
ASUS43 KLOT 260506
RWRIL

ILLINOIS REGIONAL WEATHER ROUNDUP
NATIONAL WEATHER SERVICE CHICAGO/ROMEOVILLE IL
1100 PM CST THU DEC 25 2014

NOTE: "FAIR" INDICATES FEW OR NO CLOUDS BELOW 12,000 FEET WITH NO
SIGNIFICANT WEATHER AND/OR OBSTRUCTIONS TO VISIBILITY.

* THESE STATIONS ARE NOT UNDER NWS QUALITY CONTROL. THEY ALSO MAY NOT
  REPORT WEATHER SUCH AS PRECIPITATION OR FOG.

ILZ001-002-007-009-015-016-024-260600-
NORTHWEST ILLINOIS

CITY           SKY/WX    TMP DP  RH WIND       PRES   REMARKS
MOLINE         PTCLDY    42  33  70 S13G22    29.92R
STERLING*      MOCLDY    37  32  81 S5        29.96S WCI  34
SAVANNA*       MOCLDY    39  34  81 S12       29.93F WCI  32
$$

ILZ003-004-008-010-011-017-018-260600-
NORTH CENTRAL ILLINOIS

CITY           SKY/WX    TMP DP  RH WIND       PRES   REMARKS
ROCKFORD       PTCLDY    37  32  82 S13       29.98R WCI  29
FREEPORT*      MOCLDY    36  33  89 S13       29.95F WCI  27
ROCHELLE*      PTCLDY    36  33  90 S14       29.98S WCI  27
DE KALB*       PTCLDY    34  32  94 S10       29.99S WCI  26
PERU*          PTCLDY    40  36  86 S14       30.00S
$$

ILZ005-006-012>014-019>023-260600-
NORTHEAST ILLINOIS

CITY           SKY/WX    TMP DP  RH WIND       PRES   REMARKS
CHICAGO-OHARE  MOCLDY    39  32  76 S14       30.01R WCI  31
CHICAGO-MIDWAY MOCLDY    41  33  73 S13       30.03R
AURORA         MOCLDY    37  31  78 S9        30.01R WCI  30
LANSING*       MOCLDY    36  32  87 S10       30.04S WCI  28
JOLIET*        MOCLDY    38  33  81 S12G17    30.03R WCI  31
WAUKEGAN       CLOUDY    40  33  76 S18       29.99R
DUPAGE AIRPORT CLOUDY    39  33  79 S14       30.01R WCI  31
KANKAKEE*      PTCLDY    37  33  88 S12G18    30.05R WCI  29
WHEELING       CLOUDY    39  33  79 S12       30.03R WCI  32
MORRIS*        MOCLDY    36  34  94 S8        30.01S WCI  29
ROMEOVILLE*    MOCLDY    37  33  87 S12       30.03R WCI  29
NORTHERLY ISL    N/A     41  32  70 S16         N/A
$$

LMZ740>746-260600-
SOUTHERN LAKE MICHIGAN

STATION/POSITION SKY/WX   TEMP    WIND        PRES    VSBY  WAVE
                          AIR SEA DIR/SP/G                  HT/PER
                          (F)     (DEG/KT/KT) (MB)    (MI)  (FT/S)
WAUKEGAN HARBOR            41                   N/A
HARRISON CRIB              40     190/ 21/ 24   N/A
BURNHAM HARBOR             41     200/ 16/ 19   N/A
CALUMET HARBOR             39     180/ 13/ 17 1015.7R
MICHIGAN CITY              38     150/ 15/ 19   N/A
$$

ILZ025>027-034>036-040-047-049-050-058-095>099-260600-
WEST-CENTRAL ILLINOIS

CITY           SKY/WX    TMP DP  RH WIND       PRES   REMARKS
QUINCY         PTCLDY    43  32  65 S13       29.94R
GALESBURG*     CLOUDY    39  35  83 S12       29.95S WCI  32
MACOMB*        CLOUDY    39  35  83 S12       29.97S WCI  32
JACKSONVILLE*  PTCLDY    44  37  76 S12G20    29.99R
PITTSFIELD*    PTCLDY    43  35  74 S12       29.97R
$$

ILZ028>032-037-038-041>044-048-051>054-059>061-260600-
CENTRAL ILLINOIS

CITY           SKY/WX    TMP DP  RH WIND       PRES   REMARKS
PONTIAC        CLEAR     39  35  86 S13       30.03R WCI  31
BLOOMINGTON    PTCLDY    36  34  92 S12       30.03R WCI  28
DECATUR        CLEAR     39  33  79 S16       30.04R WCI  30
PEORIA         MOCLDY    42  34  73 S12       29.99R
LACON*         MOCLDY    40  33  76 S10       29.98S
LINCOLN*       CLEAR     38  34  87 S6        30.02R WCI  33
SPRINGFIELD    PTCLDY    42  35  76 S15G24    30.01R
TAYLORVILLE    CLEAR     39  34  81 S15G21    30.03R WCI  31
$$

ILZ033-039-045-046-055>057-062-063-260600-
EAST-CENTRAL ILLINOIS

CITY           SKY/WX    TMP DP  RH WIND       PRES   REMARKS
CHAMPAIGN      CLEAR     37  32  82 S13       30.05R WCI  29
DANVILLE*      CLEAR     38  33  82 S13       30.04R WCI  30
RANTOUL*       CLEAR     36  33  90 SE7       30.05R WCI  30
MATTOON        CLEAR     38  33  82 S12       30.05S WCI  30
PARIS*         CLEAR     37  34  90 S12       30.08S WCI  29
$$

ILZ079-100>102-260600-
SOUTHWEST ILLINOIS

CITY           SKY/WX    TMP DP  RH WIND       PRES   REMARKS
ALTON          PTCLDY    42  34  74 S13G20    30.01S
BELLEVILLE     MOCLDY    41  37  84 S13       30.02S
CAHOKIA*       MOCLDY    41  36  82 S6        30.01S
SPARTA*        PTCLDY    43  34  72 S14G21    30.05F
$$

ILZ064>066-069>071-074>076-080>082-084>086-088>090-092>094-260600-
SOUTH-CENTRAL ILLINOIS

CITY           SKY/WX    TMP DP  RH WIND       PRES   REMARKS
CARBONDALE     PTCLDY    42  32  67 S12       30.08S
CAIRO*         MOCLDY    45  35  68 S10       30.13S
EFFINGHAM*     CLEAR     38  31  73 SE6       30.09R WCI  34
MARION         PTCLDY    43  34  70 S14       30.10S
MT. VERNON     CLEAR     41  30  65 S10       30.09S
CENTRALIA*     CLEAR     41  32  71 S12       30.06S
SALEM*         CLEAR     43  33  68 S10       30.07S
METROPOLIS*    CLOUDY    44  36  74 S7        30.13S
$$

ILZ067-068-072-073-078-083-087-091-260600-
SOUTHEAST ILLINOIS

CITY           SKY/WX    TMP DP  RH WIND       PRES   REMARKS
LAWRENCEVILLE  CLEAR     36  33  89 S8        30.13R WCI  30
FLORA*         CLEAR     38  33  83 S9        30.10R WCI  31
FAIRFIELD*     CLEAR     40  34  78 S9        30.10R
HARRISBURG*    PTCLDY    40  34  79 S8        30.13S
ROBINSON*      CLEAR     37  33  87 S8        30.12S WCI  30
CARMI*         CLEAR     38  36  92 S8        30.13R WCI  32
$$

ABBREVIATIONS USED IN REMARKS
   TC - TEMPERATURE IN CELSIUS
  WCI - WIND CHILL INDEX
   HX - HEAT INDEX
  VSB - VISIBILITY
$$



USA.gov is the U.S. government's official web portal to all federal, state and local government web resources and services.